Location: Unspecified
(27.8252°N, 0.0000°E)
Time: 02:55:50
(UTC+00:00)

Cosmos 1386 Rocket - Visible Passes

Search period start: 04 April 2026 00:00
Search period end: 14 April 2026 00:00
Orbit: 928 x 1005 km, 83.0° (Epoch: 29 March)

Date Brightness Start Highest point End Pass type
(mag) Time Alt. Az. Time Alt. Az. Time Alt. Az.
4 Apr 5.9 19:13:21 10° SSW 19:19:08 41° W 19:24:51 10° NNW visible
5 Apr 8.0 04:34:20 10° ENE 04:35:47 11° ENE 04:37:15 10° E visible
5 Apr 7.0 19:37:20 10° SW 19:41:57 22° WNW 19:46:31 10° NNW visible
6 Apr 7.2 04:54:09 10° NNE 04:58:45 22° ENE 05:03:22 10° SE visible
6 Apr 7.8 20:03:39 10° W 20:04:55 11° WNW 20:06:09 10° WNW visible
7 Apr 6.0 05:15:52 10° N 05:21:33 42° E 05:27:18 10° SSE visible
7 Apr 5.2 18:35:54 10° SSW 18:41:57 60° W 18:47:55 10° N visible
8 Apr 6.6 18:59:21 10° SW 19:04:41 31° W 19:09:59 10° NNW visible
9 Apr 7.5 04:18:01 10° NE 04:21:26 15° ENE 04:24:53 10° ESE visible
9 Apr 7.6 19:23:56 10° WSW 19:27:34 16° WNW 19:31:11 10° NW visible
10 Apr 6.6 04:39:06 10° NNE 04:44:20 30° E 04:49:36 10° SE visible
11 Apr 5.3 05:01:07 10° N 05:07:04 57° E 05:13:07 10° SSE visible
12 Apr 7.3 18:45:32 10° SW 18:50:16 23° WNW 18:54:58 10° NNW visible
13 Apr 7.0 04:02:35 10° NNE 04:07:04 21° ENE 04:11:34 10° SE visible
13 Apr 8.1 19:11:17 10° W 19:13:12 11° WNW 19:15:08 10° NW visible
